K5GTX Weather Reports


time (UTC)temp
C
wind
direction
speed
KPH
gust
KPH
rain 1hr
cm
rain 24hr
cm
rain mn
cm
humidity
%
barometer
mb
20260506092246 13 10 4.8 12.9 0.00 0.00 0.00 99 1017.2
20260506091743 13 44 11.3 11.3 0.00 0.00 0.00 99 1017.0
20260506091241 14 21 3.2 3.2 0.00 0.00 0.00 99 1017.1
20260506090739 13 26 8.0 12.9 0.00 0.00 0.00 99 1016.8
20260506090235 14 70 6.4 17.7 0.00 0.00 0.00 99 1017.0
20260506085732 14 3 4.8 14.5 0.00 0.00 0.00 99 1016.9
20260506085228 14 13 6.4 9.7 0.00 0.00 0.00 99 1016.8
20260506084726 14 339 8.0 14.5 0.00 0.00 0.00 99 1016.7
20260506084221 14 326 3.2 8.0 0.00 0.00 0.00 99 1016.8
20260506083718 14 90 6.4 11.3 0.00 0.00 0.00 99 1016.6
20260506083216 13 24 8.0 11.3 0.00 0.00 0.00 99 1016.6
20260506082713 13 29 4.8 12.9 0.00 0.00 0.00 99 1016.5
20260506082209 13 90 0.0 14.5 0.00 0.00 0.00 99 1016.5
20260506081707 13 95 3.2 12.9 0.00 0.00 0.00 99 1016.5
20260506081204 13 13 8.0 11.3 0.00 0.00 0.00 99 1016.0
20260506080701 13 61 3.2 11.3 0.00 0.00 0.00 99 1016.4
20260506080158 14 96 1.6 6.4 0.00 0.00 0.00 99 1016.3
20260506073143 14 0 0.0 16.1 0.00 0.00 0.00 99 1016.4
20260506072638 14 29 4.8 16.1 0.00 0.00 0.00 99 1016.3
20260506072137 15 30 8.0 9.7 0.00 0.00 0.00 99 1016.5
20260506071634 14 22 4.8 11.3 0.00 0.00 0.00 99 1016.4
20260506071131 14 10 4.8 6.4 0.00 0.00 0.00 99 1016.3
20260506070628 14 31 9.7 12.9 0.00 0.00 0.00 99 1016.4
20260506070126 15 353 4.8 11.3 0.00 0.00 0.00 99 1016.4
20260506062103 15 25 4.8 8.0 0.00 0.00 0.00 99 1016.1
20260506061558 15 297 3.2 11.3 0.00 0.00 0.00 99 1016.4
20260506061056 15 58 9.7 12.9 0.00 0.00 0.00 99 1016.2
20260506060555 15 36 4.8 16.1 0.00 0.00 0.00 99 1016.1
20260506051024 16 0 0.0 12.9 0.00 0.00 0.00 99 1016.3
20260506050521 16 49 8.0 12.9 0.00 0.00 0.00 99 1016.2
20260506045011 16 64 4.8 17.7 0.00 0.00 0.00 99 1016.0
20260506044510 16 312 6.4 11.3 0.00 0.00 0.00 99 1016.2
20260506044006 17 5 9.7 16.1 0.00 0.00 0.00 99 1016.2
20260506043503 17 24 8.0 11.3 0.00 0.00 0.00 99 1015.8
20260506043001 17 9 8.0 12.9 0.00 0.00 0.00 99 1016.0
20260506042501 17 28 9.7 14.5 0.00 0.00 0.00 99 1015.8
20260506041958 17 357 4.8 19.3 0.00 0.00 0.00 99 1016.1
20260506041456 17 48 12.9 16.1 0.00 0.00 0.00 99 1015.9
20260506040953 17 33 8.0 12.9 0.00 0.00 0.00 99 1015.5
20260506040451 17 97 4.8 11.3 0.00 0.00 0.00 99 1015.6
20260506035946 17 19 6.4 8.0 0.00 0.00 0.00 99 1015.5
20260506035444 17 36 14.5 14.5 0.00 0.00 0.00 99 1015.6
20260506034940 18 29 9.7 14.5 0.00 0.00 0.00 99 1015.5
20260506034438 18 50 6.4 25.7 0.00 0.00 0.00 99 1015.3
20260506033935 18 12 9.7 20.9 0.00 0.00 0.00 99 1015.2
20260506033432 18 26 14.5 22.5 0.00 0.00 0.00 99 1015.4
20260506032928 18 83 11.3 16.1 0.00 0.00 0.00 99 1015.2
20260506032426 18 0 4.8 19.3 0.00 0.00 0.00 99 1014.7
20260506031922 19 33 8.0 17.7 0.00 0.00 0.00 99 1014.7
20260506031419 20 50 4.8 14.5 0.00 0.00 0.00 99 1014.5
20260506030917 20 8 9.7 16.1 0.00 0.00 0.00 99 1014.6
20260506030415 20 56 3.2 20.9 0.00 0.00 0.00 99 1014.5
20260506025911 20 25 9.7 17.7 0.00 0.00 0.00 99 1014.5
20260506025409 20 29 12.9 14.5 0.00 0.00 0.00 99 1014.4
20260506024905 20 352 9.7 17.7 0.00 0.00 0.00 99 1014.5
20260506024402 20 7 6.4 16.1 0.00 0.00 0.00 99 1014.2
20260506023858 20 126 6.4 20.9 0.00 0.00 0.00 99 1013.8
20260506023355 21 0 0.0 9.7 0.00 0.00 0.00 99 1013.4
20260506022852 21 16 12.9 20.9 0.00 0.00 0.00 99 1013.5
20260506022349 21 7 14.5 17.7 0.00 0.00 0.00 99 1013.4
20260506021847 21 356 4.8 14.5 0.00 0.00 0.00 99 1013.3
20260506021344 21 16 8.0 14.5 0.00 0.00 0.00 99 1013.3
20260506020840 21 86 3.2 16.1 0.00 0.00 0.00 99 1012.9
20260506020339 22 58 4.8 16.1 0.00 0.00 0.00 99 1012.4
20260506015836 22 22 11.3 17.7 0.00 0.00 0.00 99 1012.7
20260506015334 22 43 6.4 11.3 0.00 0.00 0.00 99 1012.9
20260506014830 22 54 6.4 8.0 0.00 0.00 0.00 99 1012.7
20260506014327 22 45 6.4 8.0 0.00 0.00 0.00 99 1012.5
20260506013823 22 26 8.0 14.5 0.00 0.00 0.00 99 1012.6
20260506013321 23 15 4.8 9.7 0.00 0.00 0.00 99 1012.6
20260506012817 23 20 4.8 9.7 0.00 0.00 0.00 99 1012.4
20260506012314 23 50 4.8 11.3 0.00 0.00 0.00 99 1012.8
20260506011812 23 23 6.4 9.7 0.00 0.00 0.00 99 1012.6
20260506011308 23 65 8.0 9.7 0.00 0.00 0.00 99 1012.4
20260506010806 23 46 12.9 14.5 0.00 0.00 0.00 99 1012.3
20260506010303 23 0 4.8 6.4 0.00 0.00 0.00 99 1012.3
20260506005800 23 47 4.8 9.7 0.00 0.00 0.00 99 1012.0
20260506005257 23 11 8.0 14.5 0.00 0.00 0.00 99 1011.7
20260506004753 23 20 16.1 16.1 0.00 0.00 0.00 99 1011.8
20260506004251 23 29 11.3 16.1 0.00 0.00 0.00 99 1011.9
20260506003746 24 9 8.0 14.5 0.00 0.00 0.00 99 1011.9
20260506003243 24 12 14.5 16.1 0.00 0.00 0.00 99 1011.8
20260506002739 25 354 0.0 12.9 0.00 0.00 0.00 99 1011.7
20260506002236 25 353 4.8 11.3 0.00 0.00 0.00 99 1011.6
20260506001731 25 92 9.7 16.1 0.00 0.00 0.00 99 1011.8
20260506001229 26 358 4.8 11.3 0.00 0.00 0.00 99 1011.8
20260506000726 26 17 6.4 9.7 0.00 0.00 0.00 99 1011.5
20260506000226 26 266 4.8 14.5 0.00 0.00 0.00 99 1011.0
20260505235720 26 26 3.2 11.3 0.00 0.00 0.00 99 1011.0
20260505235219 26 90 1.6 16.1 0.00 0.00 0.00 99 1010.7
20260505234715 27 110 3.2 19.3 0.00 0.00 0.00 99 1010.8
20260505234212 27 19 8.0 12.9 0.00 0.00 0.00 99 1011.0
20260505233708 27 8 6.4 22.5 0.00 0.00 0.00 99 1010.8
20260505233206 28 51 11.3 14.5 0.00 0.00 0.00 99 1011.0
20260505232704 28 70 4.8 16.1 0.00 0.00 0.00 99 1010.7
20260505232201 29 228 3.2 11.3 0.00 0.00 0.00 99 1010.6
20260505231657 29 293 4.8 8.0 0.00 0.00 0.00 99 1010.4
20260505231157 30 325 1.6 9.7 0.00 0.00 0.00 99 1010.3
20260505230654 30 331 4.8 9.7 0.00 0.00 0.00 99 1010.3
20260505230151 30 331 1.6 14.5 0.00 0.00 0.00 99 1010.2
20260505225647 31 344 8.0 19.3 0.00 0.00 0.00 99 1009.9
20260505225143 31 262 4.8 4.8 0.00 0.00 0.00 99 1009.8
20260505224639 31 274 4.8 12.9 0.00 0.00 0.00 99 1009.9
20260505224138 31 200 1.6 8.0 0.00 0.00 0.00 99 1009.9
20260505223635 31 208 3.2 8.0 0.00 0.00 0.00 99 1009.7
20260505223130 31 255 4.8 9.7 0.00 0.00 0.00 99 1009.5
20260505222627 32 162 3.2 4.8 0.00 0.00 0.00 99 1009.6
20260505222123 31 246 0.0 4.8 0.00 0.00 0.00 99 1009.5
20260505221620 32 124 0.0 9.7 0.00 0.00 0.00 99 1009.4
20260505221117 32 120 0.0 8.0 0.00 0.00 0.00 99 1009.3
20260505220614 32 270 3.2 17.7 0.00 0.00 0.00 99 1009.5
20260505220112 32 172 0.0 4.8 0.00 0.00 0.00 99 1009.6
20260505215609 32 270 0.0 9.7 0.00 0.00 0.00 99 1009.7
20260505215107 33 114 0.0 4.8 0.00 0.00 0.00 99 1009.7
20260505214605 32 259 8.0 8.0 0.00 0.00 0.00 99 1009.6
20260505214102 32 121 3.2 9.7 0.00 0.00 0.00 99 1009.7
20260505213600 32 130 0.0 11.3 0.00 0.00 0.00 99 1009.7
20260505213056 32 228 0.0 14.5 0.00 0.00 0.00 99 1009.8
20260505212552 31 228 3.2 11.3 0.00 0.00 0.00 99 1009.6
20260505212050 32 232 6.4 6.4 0.00 0.00 0.00 99 1009.9
20260505211547 32 266 4.8 9.7 0.00 0.00 0.00 99 1010.3
20260505211043 32 225 6.4 8.0 0.00 0.00 0.00 99 1010.0
20260505210540 32 285 0.0 14.5 0.00 0.00 0.00 99 1010.0
20260505210037 32 129 3.2 8.0 0.00 0.00 0.00 99 1010.3
20260505205535 31 255 0.0 17.7 0.00 0.00 0.00 99 1010.2
20260505205032 31 105 1.6 11.3 0.00 0.00 0.00 99 1010.6
20260505204530 30 242 4.8 17.7 0.00 0.00 0.00 99 1010.3
20260505204027 30 195 1.6 24.1 0.00 0.00 0.00 99 1010.4
20260505203523 31 252 4.8 12.9 0.00 0.00 0.00 99 1010.8
20260505203020 31 270 0.0 12.9 0.00 0.00 0.00 99 1010.5
20260505202516 31 150 3.2 8.0 0.00 0.00 0.00 99 1010.5
20260505202012 32 144 0.0 8.0 0.00 0.00 0.00 99 1010.8
20260505201510 31 257 8.0 16.1 0.00 0.00 0.00 99 1010.7
20260505201007 30 195 3.2 19.3 0.00 0.00 0.00 99 1010.6
20260505200505 31 241 3.2 11.3 0.00 0.00 0.00 99 1010.6
20260505200001 30 218 8.0 17.7 0.00 0.00 0.00 99 1011.0
20260505195458 31 246 12.9 22.5 0.00 0.00 0.00 99 1010.9
20260505194955 30 247 4.8 14.5 0.00 0.00 0.00 99 1011.1
20260505194452 30 262 4.8 16.1 0.00 0.00 0.00 99 1011.1
20260505193952 30 228 0.0 8.0 0.00 0.00 0.00 99 1011.2
20260505193450 30 236 8.0 14.5 0.00 0.00 0.00 99 1010.9
20260505192947 30 158 6.4 8.0 0.00 0.00 0.00 99 1010.8
20260505192446 30 242 14.5 20.9 0.00 0.00 0.00 99 1011.0
20260505191943 30 250 6.4 17.7 0.00 0.00 0.00 99 1010.8
20260505191442 30 137 6.4 14.5 0.00 0.00 0.00 99 1010.7
20260505190938 29 241 6.4 22.5 0.00 0.00 0.00 99 1010.9
20260505190433 29 233 8.0 24.1 0.00 0.00 0.00 99 1011.0
20260505185929 29 198 3.2 22.5 0.00 0.00 0.00 99 1011.0
20260505185427 28 223 6.4 17.7 0.00 0.00 0.00 99 1011.0
20260505184922 28 204 3.2 27.4 0.00 0.00 0.00 99 1011.0
20260505184420 28 123 0.0 9.7 0.00 0.00 0.00 99 1011.2
20260505183916 28 228 3.2 11.3 0.00 0.00 0.00 99 1011.3
20260505183413 28 217 9.7 16.1 0.00 0.00 0.00 99 1011.0
20260505182910 28 254 11.3 17.7 0.00 0.00 0.00 99 1011.2
20260505182407 28 198 3.2 6.4 0.00 0.00 0.00 99 1011.0
20260505181903 28 180 3.2 12.9 0.00 0.00 0.00 99 1011.3
20260505181401 28 117 1.6 22.5 0.00 0.00 0.00 99 1011.2
20260505180857 28 240 3.2 17.7 0.00 0.00 0.00 99 1011.4
20260505180354 27 209 4.8 32.2 0.00 0.00 0.00 99 1011.0
20260505175850 28 209 8.0 14.5 0.00 0.00 0.00 99 1011.0
20260505175346 28 258 9.7 14.5 0.00 0.00 0.00 99 1011.1
20260505174837 28 237 11.3 22.5 0.00 0.00 0.00 99 1011.1
20260505174335 27 233 4.8 16.1 0.00 0.00 0.00 99 1011.4
20260505173830 27 220 0.0 20.9 0.00 0.00 0.00 99 1011.1
20260505173327 27 148 6.4 9.7 0.00 0.00 0.00 99 1011.3
20260505172825 27 246 4.8 17.7 0.00 0.00 0.00 99 1011.4
20260505172322 27 229 4.8 20.9 0.00 0.00 0.00 99 1011.4
20260505171822 27 196 4.8 19.3 0.00 0.00 0.00 99 1011.4
20260505171319 27 198 4.8 14.5 0.00 0.00 0.00 99 1011.5
20260505170815 26 227 17.7 22.5 0.00 0.00 0.00 99 1011.5
20260505170312 26 24 0.0 24.1 0.00 0.00 0.00 99 1011.5
20260505165808 27 155 4.8 14.5 0.00 0.00 0.00 99 1011.6
20260505165306 27 243 1.6 14.5 0.00 0.00 0.00 99 1011.6
20260505164759 26 188 0.0 19.3 0.00 0.00 0.00 99 1011.3
20260505164256 26 261 4.8 12.9 0.00 0.00 0.00 99 1011.3
20260505163755 26 275 0.0 20.9 0.00 0.00 0.00 99 1011.5
20260505163253 26 195 3.2 19.3 0.00 0.00 0.00 99 1011.7
20260505162750 26 228 8.0 25.7 0.00 0.00 0.00 99 1011.4
20260505162247 26 306 0.0 14.5 0.00 0.00 0.00 99 1011.3
20260505161744 26 120 0.0 14.5 0.00 0.00 0.00 99 1011.6
20260505161241 26 150 3.2 12.9 0.00 0.00 0.00 99 1011.4
20260505160738 26 115 3.2 14.5 0.00 0.00 0.00 99 1011.1
20260505160236 26 243 12.9 17.7 0.00 0.00 0.00 99 1011.1
20260505153215 25 232 16.1 24.1 0.00 0.00 0.00 99 1011.0
20260505152712 25 226 8.0 17.7 0.00 0.00 0.00 99 1011.2
20260505152209 25 180 0.0 12.9 0.00 0.00 0.00 99 1011.2
20260505151703 25 270 1.6 19.3 0.00 0.00 0.00 99 1011.3
20260505151201 25 211 4.8 22.5 0.00 0.00 0.00 99 1011.6
20260505150657 25 253 3.2 19.3 0.00 0.00 0.00 99 1011.3
20260505150155 25 221 6.4 20.9 0.00 0.00 0.00 99 1011.5
20260505140622 23 241 14.5 19.3 0.00 0.00 0.00 99 1011.6
20260505140120 22 135 3.2 17.7 0.00 0.00 0.00 99 1011.4
20260505125036 22 133 0.0 4.8 0.00 0.00 0.00 99 1011.0
20260505124533 22 81 0.0 8.0 0.00 0.00 0.00 99 1010.9
20260505124029 22 172 0.0 9.7 0.00 0.00 0.00 99 1011.2
20260505123525 22 231 4.8 16.1 0.00 0.00 0.00 99 1010.8
20260505123021 22 174 0.0 8.0 0.00 0.00 0.00 99 1010.7
20260505122519 22 257 0.0 14.5 0.00 0.00 0.00 99 1010.5
20260505122016 22 157 6.4 11.3 0.00 0.00 0.00 99 1010.7
20260505121512 21 154 0.0 8.0 0.00 0.00 0.00 99 1010.7
20260505121009 21 259 8.0 9.7 0.00 0.00 0.00 99 1010.6
20260505120506 22 246 0.0 11.3 0.00 0.00 0.00 99 1010.8
20260505120006 22 195 4.8 8.0 0.00 0.00 0.00 99 1010.6
20260505115501 22 220 0.0 11.3 0.00 0.00 0.00 99 1010.8
20260505114959 21 193 4.8 20.9 0.00 0.00 0.00 99 1010.8
20260505114455 21 133 4.8 9.7 0.00 0.00 0.00 99 1010.5
20260505113952 21 240 8.0 14.5 0.00 0.00 0.00 99 1010.4
20260505113449 21 172 9.7 9.7 0.00 0.00 0.00 99 1010.4
20260505112944 21 276 3.2 8.0 0.00 0.00 0.00 99 1010.4
20260505112442 21 117 1.6 8.0 0.00 0.00 0.00 99 1010.3
20260505111938 21 244 6.4 14.5 0.00 0.00 0.00 99 1010.4
20260505111432 21 212 3.2 14.5 0.00 0.00 0.00 99 1010.5
20260505110929 21 194 0.0 11.3 0.00 0.00 0.00 99 1010.6
20260505110426 21 126 0.0 12.9 0.00 0.00 0.00 99 1010.4
20260505101857 21 103 4.8 17.7 0.00 0.00 0.00 99 1010.4
20260505101351 21 157 4.8 14.5 0.00 0.00 0.00 99 1010.7
20260505100848 22 148 3.2 12.9 0.00 0.00 0.00 99 1010.5
20260505100344 22 152 6.4 19.3 0.00 0.00 0.00 99 1010.4
20260505095840 22 184 3.2 8.0 0.00 0.00 0.00 99 1010.4
20260505095338 22 120 1.6 22.5 0.00 0.00 0.00 99 1010.4
20260505094833 22 105 3.2 11.3 0.00 0.00 0.00 99 1010.6
20260505094331 22 212 9.7 16.1 0.00 0.00 0.00 99 1010.6
20260505093826 21 176 4.8 8.0 0.00 0.00 0.00 99 1010.8
20260505093324 21 285 1.6 22.5 0.00 0.00 0.00 99 1010.5
20260505092820 21 168 4.8 14.5 0.00 0.00 0.00 99 1010.6